TIME,DELAY(SENSOR),PRES,T(CTD),SAL,OXYGEN,RAWTEMP,T(OPTODE),TCPHASE,FLUOR,BETA(BETA700),BETA(BETA412),BETA(BETA440),CDOM,C(CSC),ED(ED412.40),ED(ED444.00),ED(ED489.70),ED(ED554.30),LU(LU411.80),LU(LU443.40),LU(LU489.60),LU(LU554.10),COMP,TILTX,TILTX(TILTY),CHECK
1348090116,5808,497.7300109863281000,5.9552998542785645,34.2127990722656250,51.3617897033691400,620.2728271484375000,5.9273891448974610,52.8631095886230500,52,103,88,81,82,15244,2147752365,2147420937,2148006857,2147877915,2147633773,2147076553,2148252982,2147198061,1713,5,13,50035
1348090248,5811,486.2200012207031000,5.9017000198364260,34.1744995117187500,57.9091911315918000,621.9978027343750000,5.8713088035583500,51.9810600280761700,52,103,91,81,81,15243,2147750875,2147425517,2148002907,2147875739,2147632109,2147078089,2148250669,2147198180,1940,5,13,64100
1348090369,5805,475.4400024414062500,6.0409002304077150,34.1594009399414060,62.3766098022460940,617.6845092773438000,6.0114798545837400,51.3308715820312500,53,103,88,80,80,15243,2147752905,2147420443,2148005705,2147875236,2147632192,2147079515,2148251721,2147197266,2520,5,13,5244
1348090492,5809,464.6499938964844000,6.2116999626159670,34.1645011901855500,65.9950027465820300,612.3632202148438000,6.1841559410095215,50.7957191467285160,52,105,90,79,79,15245,2147751158,2147423707,2148006610,2147875346,2147634313,2147077915,2148250157,2147196352,2842,5,13,58701
1348090624,5809,453.1700134277344000,6.3298001289367680,34.1551017761230500,70.0622024536132800,608.5546264648438000,6.3075728416442870,50.2328605651855500,52,105,88,80,80,15243,2147749696,2147420470,2148006756,2147875410,2147635072,2147079616,2148248576,2147197458,3259,5,13,56820
1348090748,5810,442.8599853515625000,6.4467000961303710,34.1442985534668000,75.1889114379882800,605.0131835937500000,6.4222030639648440,49.5548400878906250,51,104,89,81,81,15244,2147753206,2147419785,2148004964,2147873728,2147632082,2147077366,2148248137,2147198765,2327,4,13,11346
1348090880,5807,431.9500122070312500,6.5580000877380370,34.1362991333007800,81.7670669555664000,601.2302246093750000,6.5445208549499510,48.7239685058593750,51,105,91,80,78,15242,2147751076,2147422866,2148005467,2147877741,2147631131,2147077750,2148249709,2147196123,1597,4,13,29846
1348091023,5805,420.7500000000000000,6.8843002319335940,34.1203994750976560,89.3921737670898400,591.2252197265625000,6.8673610687255860,47.7043113708496100,51,106,91,81,79,15238,2147748534,2147424960,2148002441,2147876754,2147631744,2147077494,2148246454,2147201014,699,4,13,46578
1348091179,5811,409.5899963378906000,6.9850997924804690,34.1217994689941400,96.1122589111328100,588.1445922851562000,6.9665760993957520,46.9227409362793000,51,104,88,80,77,15243,2147745792,2147423634,2148006198,2147874523,2147628781,2147080228,2148240758,2147203346,207,4,13,60472
1348091333,5808,399.0000000000000000,7.1319999694824220,34.1189002990722660,100.4847030639648400,583.3815917968750000,7.1198039054870605,46.3844490051269500,51,105,89,80,79,15243,2147747062,2147421485,2148005147,2147873728,2147628425,2147079552,2148246052,2147204498,2726,4,13,5563
1348091480,5806,386.7300109863281000,7.2809000015258790,34.1167984008789060,105.6107025146484400,578.5974731445312000,7.2735037803649900,45.7761192321777340,51,105,90,79,77,15238,2147744676,2147421046,2148003117,2147877083,2147628763,2147082093,2148243776,2147202550,1537,4,13,59222
1348091590,5810,375.9299926757812500,7.4734001159667970,34.1118011474609400,109.6770019531250000,572.6495971679688000,7.4643058776855470,45.2685089111328100,51,105,87,81,77,15241,2147746258,2147422272,2148005339,2147875044,2147625014,2147082889,2148241353,2147199158,2315,4,13,31037
1348091703,5810,365.3299865722656000,7.7200999259948730,34.1035995483398440,115.7498016357421900,565.1398925781250000,7.7047629356384280,44.5446014404296900,51,105,89,81,77,15239,2147747154,2147424320,2148005915,2147874166,2147624155,2147084470,2148241088,2147199762,3323,5,13,22378
1348091835,5809,354.3399963378906000,7.9348001480102540,34.1044006347656250,126.4605026245117200,558.1522827148438000,7.9280657768249510,43.4147186279296900,51,105,86,80,77,15241,2147740096,2147420800,2148002258,2147874377,2147626496,2147085586,2148241590,2147202395,3287,4,12,56680
1348091978,5809,344.3399963378906000,8.1944999694824220,34.0825004577636700,138.8208007812500000,550.4669189453125000,8.1731891632080080,42.1819114685058600,50,105,89,80,76,15245,2147741275,2147424594,2148007305,2147871488,2147625152,2147094610,2148238701,2147201883,2859,4,13,22666
1348092146,5809,332.3900146484375000,8.5496997833251950,34.0993995666503900,150.9387969970703000,539.1483764648438000,8.5333080291748050,40.9758300781250000,50,106,89,80,76,15242,2147742052,2147420370,2148007634,2147875410,2147619584,2147095314,2148235721,2147201563,2596,4,13,6137
1348092289,5809,321.3699951171875000,8.8998003005981450,34.0922012329101560,164.1923065185547000,527.3380737304688000,8.9079904556274410,39.7390518188476560,50,105,87,80,75,15243,2147740324,2147422116,2148005668,2147871277,2147620653,2147095442,2148231972,2147204086,2176,5,13,50321
1348092412,5813,310.0599975585937500,9.2421998977661130,34.0857009887695300,178.3670959472656200,516.8657226562500000,9.2393283843994140,38.5324211120605500,49,106,88,80,73,15246,2147737472,2147427702,2148011035,2147874093,2147618148,2147098898,2148232438,2147203712,3353,5,13,59039
1348092511,5808,299.0799865722656000,9.7589998245239260,34.1142005920410160,189.2931976318359400,500.7438964843750000,9.7478332519531250,37.5182304382324200,49,105,88,81,72,15241,2147739300,2147426889,2148017609,2147875885,2147614089,2147102006,2148235940,2147204461,583,4,12,37843
1348092610,5807,287.6499938964844000,10.1550998687744140,34.1226997375488300,198.7203979492187500,487.8702087402344000,10.1525802612304690,36.6982994079589840,49,105,87,81,71,15243,2147740699,2147424667,2148019209,2147875465,2147615771,2147104585,2148232832,2147201298,3029,4,13,23566
1348092728,5808,274.8599853515625000,10.5746002197265620,34.1374015808105500,199.5637969970703000,474.2922973632812500,10.5782804489135740,36.4192695617675800,49,106,89,80,71,15240,2147738139,2147425929,2148023122,2147872118,2147610752,2147113810,2148231104,2147204224,3116,4,14,7509
1348092838,5811,264.7000122070312500,11.1154003143310550,34.1680984497070300,199.1430053710937500,457.5802917480469000,11.1006498336792000,36.1690788269043000,48,107,92,81,70,15235,2147736877,2147435446,2148048374,2147878683,2147609206,2147112530,2148237979,2147207469,2970,4,13,50599
1348092973,5810,253.1499938964843800,11.4513998031616210,34.1820983886718750,201.0792999267578000,446.7424926757812500,11.4385299682617190,35.8739891052246100,49,110,88,80,70,15234,2147735478,2147430582,2148060306,2147874660,2147607277,2147119414,2148244352,2147205961,1945,4,13,41588
1348093105,5808,242.4799957275390600,11.6870002746582030,34.1898002624511700,202.5861053466797000,438.8518066406250000,11.6841096878051760,35.6542701721191400,48,107,88,82,70,15237,2147729609,2147440996,2148086774,2147872283,2147605714,2147126829,2148255798,2147211968,765,4,14,53828
1348093248,5808,231.7200012207031200,12.0947999954223630,34.2070999145507800,204.2106018066406200,425.6119079589844000,12.0954303741455080,35.3444404602050800,49,107,86,81,70,15233,2147729819,2147453814,2148126336,2147872667,2147604169,2147133540,2148274706,2147211090,143,4,13,8597
1348093389,5807,219.5000000000000000,12.7211999893188480,34.2356986999511700,204.8901062011718800,405.0176086425781000,12.7334899902343750,34.9783515930175800,48,106,85,80,69,15236,2147732589,2147469092,2148194678,2147874185,2147602258,2147147794,2148304594,2147212260,2196,4,14,42851
1348093499,5809,208.2200012207031200,12.9892997741699220,34.2448005676269500,206.5778961181640600,396.8168029785156000,12.9870300292968750,34.7508888244628900,49,106,90,80,69,15230,2147731328,2147497554,2148280393,2147874770,2147599652,2147164379,2148340260,2147214180,3289,4,13,17024
1348093629,5807,195.8099975585937500,13.9741001129150390,34.2834014892578100,208.1938934326172000,365.3140869140625000,13.9583997726440430,34.1718788146972660,49,106,87,81,68,15231,2147737490,2147516708,2148334061,2147874020,2147596233,2147183890,2148371776,2147215131,2508,3,13,23747
1348093684,5809,191.7299957275390600,14.5061998367309570,34.3898010253906250,207.8282012939453000,348.5136108398437500,14.4749603271484380,33.9389915466308600,49,106,90,81,68,15228,2147734354,2147527323,2148362011,2147870336,2147594386,2147190994,2148372068,2147216256,1640,4,13,1969
1348093739,5810,187.8000030517578000,14.6246004104614260,34.4034996032714840,207.9774017333984400,343.7694091796875000,14.6206703186035160,33.8594398498535160,50,109,89,81,68,15224,2147734564,2147543753,2148402230,2147874724,2147594697,2147200576,2148394770,2147221001,935,3,14,24691
1348093794,5810,183.9799957275390600,14.8098001480102540,34.4255981445312500,207.5769042968750000,336.7611999511719000,14.8357896804809570,33.7771682739257800,50,109,88,80,68,15219,2147734162,2147549293,2148409755,2147875520,2147596251,2147203254,2148397385,2147221229,645,4,14,42548
1348093849,5811,180.3300018310547000,15.0656003952026370,34.4048995971679700,210.1903076171875000,327.6476135253906000,15.1153402328491210,33.4927711486816400,49,110,86,81,67,15228,2147743853,2147630509,2148676205,2147875209,2147598637,2147253120,2148514587,2147228480,2696,3,13,60591
1348093939,5807,175.5800018310547000,15.7622995376586910,34.5026016235351560,213.1614074707031200,305.9056091308594000,15.7814302444458000,33.0076484680175800,50,111,91,83,67,15224,2147753764,2147653513,2148721389,2147874148,2147597750,2147266194,2148541385,2147229083,1830,3,14,12875
1348094027,5810,171.8200073242187500,16.1023998260498050,34.5546989440918000,210.2366027832031200,297.9560852050781000,16.0247306823730470,33.0557098388671900,52,112,90,80,66,15216,2147764681,2147719661,2148899410,2147877750,2147599990,2147301266,2148622016,2147237302,1984,4,15,47713
1348094115,5807,167.5800018310547000,16.5356006622314450,34.6100006103515600,208.2449035644531200,283.1471862792969000,16.4776706695556640,32.9539718627929700,56,113,90,80,66,15211,2147770532,2147738048,2148914240,2147875995,2147602477,2147315483,2148632713,2147240466,2921,4,14,20657
1348094203,5807,163.2799987792968800,16.7208003997802730,34.6302986145019500,207.7373046875000000,276.0368041992187500,16.6950397491455080,32.8810615539550800,57,110,88,82,66,15211,2147775542,2147781714,2149007826,2147874925,2147601673,2147345526,2148679789,2147238637,454,3,14,11139
1348094282,5805,159.4499969482422000,17.1226005554199220,34.6771011352539060,206.4918975830078000,263.4796142578125000,17.0787792205810550,32.7722396850585940,64,116,92,81,66,15202,2147797558,2147876315,2149259538,2147879872,2147609773,2147391515,2148774454,2147247634,1041,3,14,59746
1348094381,5810,156.0299987792968800,17.3791999816894530,34.7081985473632800,206.4447937011718800,254.2561035156250000,17.3605403900146500,32.6439399719238300,72,113,89,82,65,15193,2147785408,2147790674,2148995236,2147879862,2147600795,2147354898,2148659483,2147241005,1081,3,15,6684
1348094546,5810,152.5099945068359400,17.5939998626709000,34.7356986999511700,206.5617980957031200,246.8029937744140600,17.5881900787353500,32.5318794250488300,79,116,88,83,67,15192,2147789796,2147803684,2149015451,2147880420,2147602267,2147358985,2148658706,2147240978,1009,3,15,32875
1348094698,5808,148.1100006103515600,18.1291999816894530,34.7911987304687500,206.6499023437500000,231.6721038818359400,18.0502796173095700,32.3141784667968750,80,117,89,83,65,15186,2147850614,2148056027,2149657508,2147882596,2147621824,2147471524,2148930697,2147259035,360,3,14,22516
1348094819,5809,143.5000000000000000,18.1539993286132800,34.8011016845703100,208.5115966796875000,228.1647033691406200,18.1573791503906250,32.1606788635253900,83,117,91,82,66,15185,2147941741,2148397275,2150471168,2147893202,2147655131,2147631451,2149249974,2147284050,1086,3,15,35279
1348094931,5810,137.6900024414062500,18.5394001007080080,34.8445014953613300,209.0735015869140600,217.4743041992187500,18.4838504791259770,31.9807491302490230,80,124,92,83,66,15181,2148054080,2148703926,2151096612,2147902016,2147695067,2147784676,2149525531,2147304786,1697,3,15,455
1348094986,5809,134.2299957275390600,18.6039009094238280,34.8560981750488300,209.4611053466797000,212.7133026123047000,18.6292591094970700,31.8936996459960940,83,120,90,83,65,15177,2148092205,2148756361,2151131099,2147906112,2147707163,2147819099,2149542784,2147310125,2412,3,15,33190
1348095052,5807,130.1300048828125000,19.0734996795654300,34.9090003967285160,209.5702056884765600,199.2621002197265600,19.0401191711425780,31.7022590637207030,93,123,93,83,65,15171,2148249298,2149173842,2152012781,2147922523,2147760685,2148002011,2149874980,2147336018,3072,3,15,54682
1348095129,5808,126.4400024414062500,19.3521995544433600,34.9431991577148440,210.6347961425781200,189.7507934570312500,19.3307304382324220,31.5141792297363280,101,124,90,84,64,15164,2148291446,2149190436,2151914276,2147920566,2147780653,2148025380,2149869220,2147338660,3107,3,15,8477
1348095231,5807,123.0800018310546900,19.5762996673584000,34.9687995910644500,210.9785003662109400,182.3358001708984400,19.5573501586914060,31.3946495056152340,103,126,90,82,64,15159,2148562386,2149862957,2153284096,2147948443,2147873078,2148311515,2150380544,2147379090,2675,3,15,3488
1348095440,5806,119.4300003051757800,19.9976005554199220,35.0167007446289060,212.7232055664062500,171.1835937500000000,19.8983097076416000,31.1494007110595700,111,126,92,84,64,15138,2148910518,2150517723,2154432905,2147973376,2147989997,2148567268,2150777773,2147413897,3224,3,15,50098
1348095596,5809,114.3899993896484400,20.4113006591796880,35.0633010864257800,214.3502044677734400,154.3632965087890600,20.4129390716552730,30.8370704650878900,120,126,90,83,64,15125,2149184237,2150876169,2154764214,2147992868,2148080612,2148688155,2150841883,2147428982,1411,2,15,34331
1348095673,5808,110.7900009155273400,20.6333007812500000,35.0863990783691400,216.1526031494140600,148.7875061035156200,20.5836391448974600,30.6681995391845700,123,127,91,84,63,15115,2149289161,2150913746,2154578761,2147997275,2148115794,2148682413,2150763940,2147427492,1700,3,15,60391
1348095761,5806,106.8700027465820300,20.7133007049560550,35.0945014953613300,217.5552978515625000,144.6876983642578000,20.7091999053955080,30.5403804779052730,128,133,91,83,62,15110,2149407780,2150912594,2154283410,2148000475,2148145270,2148646509,2150586102,2147419273,2734,2,16,28417
1348095841,5810,103.6800003051757800,20.9365997314453120,35.1123008728027340,218.8769989013672000,137.1578063964843800,20.9399108886718750,30.3727607727050780,142,130,90,83,64,15089,2149830601,2151570614,2155194752,2148031506,2148288082,2148887241,2150911478,2147449124,2647,2,16,38528
1348095962,5808,100.1800003051757800,21.1324005126953120,35.1291999816894500,222.4111938476562500,131.0066986083984400,21.1284694671630860,30.1120700836181640,152,129,92,85,62,15085,2152547209,2156564589,2163656237,2148284105,2149167478,2150761856,2153853540,2147730642,814,2,15,48638
1348096017,5807,98.6299972534179700,21.1891994476318360,35.1335983276367200,223.6797943115234400,129.3300018310547000,21.1798801422119140,30.0265407562255860,155,130,91,82,63,15086,2153928018,2158979702,2167639460,2148413248,2149610093,2151655771,2155245531,2147871204,346,3,15,21231
1348096072,5809,97.0199966430664000,21.2168006896972660,35.1353988647460940,225.0749969482422000,128.2630004882812500,21.2126102447509770,29.9431190490722660,148,129,93,84,63,15079,2153861878,2158522212,2166379218,2148387419,2149577673,2151454893,2154805193,2147833270,227,3,15,5847
1348096151,5808,93.8600006103515600,21.3341999053955080,35.1441993713378900,226.2111968994140600,124.5582962036132800,21.3262500762939450,29.8388900756835940,152,132,93,85,64,15067,2156261348,2162082130,2171207808,2148578112,2150335058,2152699492,2156399570,2148010505,572,3,15,17922
1348096206,5809,90.9000015258789000,21.4337005615234380,35.1500015258789060,227.2561950683593800,120.5418014526367200,21.4494895935058600,29.7353191375732420,157,129,94,84,63,15049,2156985362,2162601270,2170843602,2148626669,2150507986,2152664246,2155952484,2147999798,1014,2,16,41771
1348096261,5807,88.0500030517578100,21.5492992401123050,35.1581001281738300,228.7030944824218800,116.0240020751953100,21.5881690979003900,29.6063194274902340,173,129,93,87,63,15030,2161526061,2169441225,2180205211,2149008173,2151981513,2155142006,2159295552,2148367872,1296,2,16,38527
1348096316,5810,85.3899993896484400,21.7926998138427730,35.1683006286621100,231.1291961669922000,109.9596023559570300,21.7744293212890620,29.4112892150878900,137,123,90,83,63,15043,2163668114,2172004059,2182505078,2149138496,2152679195,2155978688,2160038144,2148470025,1534,3,15,18588
1348096371,5808,83.1699981689453100,21.9298992156982420,35.1753997802734400,233.1201019287109400,105.1159973144531200,21.9232692718505860,29.2544708251953120,107,121,90,83,61,15086,2166775533,2175678564,2186416118,2149384795,2153745892,2157412754,2161467428,2148648137,993,2,15,15029
1348096426,5812,81.4199981689453100,22.2243003845214840,35.1829986572265600,234.2781066894531200,96.3889694213867200,22.1916294097900400,29.0886497497558600,100,123,89,83,62,15106,2169901824,2179375542,2190486281,2149605568,2155047305,2159318866,2163682715,2148895552,3143,2,15,20349
1348096483,5806,80.4100036621093800,22.3145008087158200,35.1883010864257800,235.7207031250000000,93.0761337280273400,22.2935695648193360,28.9790592193603500,95,120,92,83,62,15102,2166078966,2173012059,2180777078,2149174354,2153896731,2157079396,2160330413,2148524178,2864,3,16,6125
1348096815,5803,78.5000000000000000,22.5617008209228500,35.1945991516113300,240.0093994140625000,84.7660369873046900,22.5494594573974600,28.6767292022705080,79,140,89,85,61,15093,2183220480,2191729106,2199696146,2150097618,2161268918,2166341741,2169082752,2149471424,3323,2,16,20765
1348096870,5809,76.9899978637695300,22.6156997680664060,35.1962013244628900,240.6997985839843800,82.6918029785156200,22.6133708953857420,28.6193199157714840,79,122,93,84,62,15085,2190413293,2199584402,2207860388,2150610889,2164535835,2170278354,2172738422,2149891492,259,2,15,2409
1348096936,5808,74.8300018310546900,23.0452003479003900,35.1982994079589840,240.5532073974609400,68.7462921142578100,23.0434703826904300,28.4507408142089840,74,122,93,84,61,15081,2191778697,2198973092,2204696795,2150567049,2165868077,2171086134,2172666678,2149902107,3297,2,15,49836
1348096991,5810,73.4700012207031200,23.2014007568359380,35.2038993835449200,242.7230072021484400,64.5805816650390600,23.1721096038818360,28.3013496398925780,74,122,91,86,59,15072,2194446217,2201559113,2206907830,2150735533,2167382802,2172574829,2173710436,2150032182,2748,2,16,40398
1348097125,5807,70.8099975585937500,23.5118999481201170,35.2018013000488300,245.1345062255859400,54.1815910339355500,23.4935398101806640,28.0651397705078120,72,125,93,85,60,15075,2192434395,2197308406,2200336109,2150670427,2167564032,2171556050,2171545033,2149834176,2574,3,16,6536
1348097180,5808,68.8499984741211000,23.6490993499755860,35.2005004882812500,246.3350982666015600,51.1598587036132800,23.5870304107666000,27.9751396179199220,69,126,95,85,59,15059,2206527085,2213113115,2217327387,2151854226,2174596589,2179790006,2179135104,2150737755,2657,3,16,33294
1348097235,5807,67.0999984741211000,23.8719005584716800,35.1991996765136700,246.7789001464843800,43.0565109252929700,23.8379592895507800,27.8555107116699220,68,128,94,85,59,15061,2218760384,2226356662,2231731629,2153174445,2181427529,2187835968,2186754541,2151637723,3129,2,16,16782
1348097312,5808,65.4499969482421900,23.9825000762939450,35.1959991455078100,247.4367980957031200,39.9045600891113300,23.9356403350830080,27.7881908416748050,67,127,94,87,59,15068,2220876726,2227914048,2232708571,2153477988,2183485577,2189669540,2187875922,2151776146,3052,3,16,17178
1348097457,5808,63.3199996948242200,24.4127998352050780,35.1953010559082000,247.0859069824218800,25.6810302734375000,24.3770809173584000,27.6283302307128900,65,128,93,87,56,15063,2229323712,2235705636,2239760740,2154486756,2190370148,2196315529,2192721051,2152390546,3114,3,16,34855
1348097655,5806,61.7999992370605500,24.7651996612548830,35.2052993774414060,246.9956970214843800,13.4972295761108400,24.7560501098632800,27.4829101562500000,64,128,98,86,59,15055,2228648576,2234759817,2238591634,2154724352,2191913901,2197661824,2193513554,2152516854,3083,3,16,31026
1348097778,5806,58.8300018310546900,25.1602001190185550,35.2065010070800800,245.6616058349609400,4.6983628273010250,25.0302391052246100,27.4328594207763670,61,128,93,86,57,15055,2197285961,2198110180,2197769206,2151671460,2177036388,2178740635,2174840758,2150323666,3169,2,15,46377
1348097833,5808,57.4099998474121100,25.3027000427246100,35.2162017822265600,244.4756011962890600,-2.9142379760742188,25.2678298950195300,27.3912105560302730,62,132,94,85,58,15058,2197038637,2197822272,2197333092,2151793792,2177414656,2178673618,2174343917,2150322898,2173,2,16,4507
1348098132,5811,55.5000000000000000,25.8223991394042970,35.2369003295898440,239.7637023925781200,-19.0715808868408200,25.7732601165771500,27.4002304077148440,59,129,92,87,56,15062,2200665627,2201522925,2201072493,2152519250,2183958537,2184484397,2178386413,2150811428,2020,3,16,15100
1348098330,5807,53.5299987792968750,25.9395999908447270,35.2436981201171900,237.3433074951172000,-23.3944492340087900,25.9087696075439450,27.4550800323486330,58,130,96,87,57,15062,2177324260,2175394889,2173355291,2150034386,2170015094,2168001984,2163392978,2148990610,161,2,15,24236
1348098430,5808,51.0800018310546900,26.0020999908447270,35.2466011047363300,236.2778930664062500,-26.3570709228515620,26.0017108917236330,27.4666900634765620,56,129,95,86,57,15068,2179760941,2177602541,2175355620,2150502354,2173984246,2171127478,2165255488,2149240740,1106,2,16,52233
1348098485,5809,49.0699996948242200,26.0590991973876950,35.2543983459472660,235.7655944824218800,-27.8905105590820300,26.0498294830322270,27.4707298278808600,56,130,93,86,56,15066,2180121517,2177781787,2175361874,2150695606,2175585938,2172157147,2165709522,2149319488,1508,2,16,460
1348098540,5809,47.0400009155273440,26.0771007537841800,35.2583007812500000,235.3475952148437500,-28.5496406555175780,26.0705204010009770,27.4816093444824220,55,129,92,88,56,15063,2180861339,2178331821,2175739931,2150913234,2177797869,2173712886,2166510912,2149430308,1169,2,16,63106
1348098595,5810,44.7799987792968750,26.0855007171630860,35.2602005004882800,235.1163940429687500,-28.8998508453369140,26.0815200805664060,27.4878196716308600,55,129,94,87,55,15067,2182264045,2179558418,2176811812,2151331657,2180633033,2175848173,2167752685,2149622564,919,2,15,22152
1348098650,5806,42.2999992370605500,26.0930004119873050,35.2625007629394500,235.1000061035156200,-29.1405105590820300,26.0890808105468750,27.4855995178222660,56,129,95,86,56,15060,2184204882,2181310884,2178400146,2152000201,2183856082,2178274706,2169212836,2149887872,791,2,16,29513
1348098728,5809,37.9599990844726560,26.1095008850097660,35.2653999328613300,234.9490966796875000,-29.6497592926025400,26.1050701141357420,27.4861507415771500,54,129,94,86,56,15053,2190960694,2187814390,2184569216,2153981613,2193219053,2185917860,2174196845,2150752073,354,2,16,56297
1348098783,5806,34.0999984741210940,26.1107997894287100,35.2650985717773440,234.9452056884765600,-29.7456398010253900,26.1080799102783200,27.4850807189941400,54,129,93,87,56,15059,2198268315,2194957723,2191518025,2156635977,2202896310,2193902299,2179499904,2151822454,3570,2,16,36518
1348098838,5806,30.1399993896484380,26.1159000396728500,35.2661018371582000,235.0243988037109400,-29.9308300018310550,26.1138896942138670,27.4793491363525400,53,128,96,87,53,15059,2207548260,2204061046,2200443766,2160690340,2214991021,2203984841,2186297161,2153347337,3501,2,15,3564